Belmar-Farmingdale, NJ

1:02 PM EST on November 17, 2019 (GMT -0500)
Allaire

Weather History for KBLM - September, 2019

Change the Weather History Date:

Thursday, September 5, 2019

  Actual Average Record
Temperature  
Mean Temperature 70 °F -  
Max Temperature 75 °F 75 °F 89 °F (2018)
Min Temperature 66 °F 61 °F 48 °F (1997)
Cooling Degree Days 6    
Growing Degree Days 20 (Base 50)    
Moisture  
Dew Point 58 °F    
Average Humidity 69    
Maximum Humidity 81    
Minimum Humidity 59    
Precipitation  
Precipitation 0.00 in - - ()
Sea Level Pressure  
Sea Level Pressure 30.06 in    
Wind  
Wind Speed 7 mph ()    
Max Wind Speed 10 mph    
Max Gust Speed -    
Visibility 10.0 miles    
Events      
Averages and records for this station are not official NWS values.
T = Trace of Precipitation, MM = Missing Value Source: Averaged Metar Reports

Daily Weather History Graph

Daily Weather History Graph

Search for Another Location

Airport or City:

Astronomy

Sep. 05, 2019 Rise Set
Actual Time 6:27 AM EDT 7:22 PM EDT
Civil Twilight 5:59 AM EDT 7:49 PM EDT
Nautical Twilight 5:27 AM EDT 8:22 PM EDT
Astronomical Twilight 4:52 AM EDT 8:56 PM EDT
Moon 1:32 PM EDT (9/5) 11:35 PM EDT (9/5)
Length of Visible Light 13h 49m
Length of Day
12h 54m
Waxing Crescent, 45% of the Moon is Illuminated
Sep 5
Waxing Crescent
Sep 5
First Quarter
Sep 14
Full
Sep 21
Last Quarter
Sep 28
New

Hourly Weather History & Observations

Time (EDT) Temp. Dew Point Humidity Pressure Visibility Wind Dir Wind Speed Gust Speed Precip Events Conditions
12:56 AM 75.0 °F 63.0 °F 66% 29.99 in 10.0 mi North 9.2 mph - N/A   Clear
1:56 AM 73.0 °F 62.1 °F 68% 30.00 in 10.0 mi North 10.4 mph - N/A   Partly Cloudy
2:56 AM 71.1 °F 64.0 °F 78% 30.02 in 10.0 mi North 10.4 mph - N/A   Clear
3:56 AM 70.0 °F 63.0 °F 78% 30.03 in 10.0 mi North 8.1 mph - N/A   Clear
4:56 AM 69.1 °F 61.0 °F 75% 30.03 in 10.0 mi North 6.9 mph - N/A   Overcast
5:56 AM 68.0 °F 55.9 °F 65% 30.05 in 10.0 mi NNE 9.2 mph - N/A   Scattered Clouds
6:56 AM 66.9 °F 54.0 °F 63% 30.06 in 10.0 mi NNE 9.2 mph - N/A   Partly Cloudy
7:56 AM 66.9 °F 55.9 °F 68% 30.09 in 10.0 mi NNE 8.1 mph - N/A   Clear
8:56 AM 66.9 °F 55.9 °F 68% 30.10 in 10.0 mi NNE 8.1 mph - N/A   Clear
9:56 AM 68.0 °F 55.9 °F 65% 30.11 in 10.0 mi NNE 10.4 mph - N/A   Scattered Clouds
10:56 AM 70.0 °F 57.0 °F 63% 30.11 in 10.0 mi NE 10.4 mph - N/A   Overcast
11:56 AM 70.0 °F 57.0 °F 63% 30.10 in 10.0 mi NNE 9.2 mph - N/A   Scattered Clouds
12:56 PM 71.1 °F 57.0 °F 61% 30.11 in 10.0 mi Variable 4.6 mph - N/A   Scattered Clouds
1:56 PM 71.1 °F 57.0 °F 61% 30.09 in 10.0 mi ENE 10.4 mph - N/A   Overcast
2:56 PM 71.1 °F 55.9 °F 59% 30.08 in 10.0 mi East 8.1 mph - N/A   Overcast
3:56 PM 71.1 °F 55.9 °F 59% 30.08 in 10.0 mi NE 4.6 mph - N/A   Overcast
4:56 PM 70.0 °F 57.9 °F 65% 30.06 in 10.0 mi East 6.9 mph - N/A   Partly Cloudy
5:56 PM 69.1 °F 57.9 °F 68% 30.06 in 10.0 mi East 4.6 mph - N/A   Mostly Cloudy
6:56 PM 68.0 °F 59.0 °F 73% 30.06 in 10.0 mi ESE 5.8 mph - N/A   Clear
7:56 PM 66.9 °F 59.0 °F 76% 30.06 in 10.0 mi East 3.5 mph - N/A   Clear
8:56 PM 66.9 °F 59.0 °F 76% 30.06 in 10.0 mi NE 3.5 mph - N/A   Clear
9:56 PM 66.0 °F 59.0 °F 78% 30.06 in 10.0 mi NE 3.5 mph - N/A   Clear
10:56 PM 66.0 °F 60.1 °F 81% 30.04 in 10.0 mi NE 3.5 mph - N/A   Clear
11:56 PM 66.9 °F 60.1 °F 79% 30.03 in 10.0 mi ENE 4.6 mph - N/A   Overcast